Location: Capelle
(50.3413°N, 1.9974°E)
Time: 14:31:04
(UTC+00:00)

Resurs 01 Rocket - Visible Passes

Search period start: 11 April 2026 00:00
Search period end: 21 April 2026 00:00
Orbit: 625 x 637 km, 97.7° (Epoch: 11 April)

Date Brightness Start Highest point End Pass type
(mag) Time Alt. Az. Time Alt. Az. Time Alt. Az.
12 Apr 3.6 19:24:55 10° SSW 19:28:49 31° W 19:32:44 10° NNW visible
13 Apr 4.3 19:46:23 10° SW 19:49:40 20° W 19:52:57 10° NW visible
14 Apr 4.6 20:08:28 10° WSW 20:10:34 13° W 20:12:41 10° WNW visible
17 Apr 3.9 19:32:10 10° SSW 19:35:52 26° W 19:39:36 10° NW visible
18 Apr 4.4 19:53:49 10° SW 19:56:44 17° W 19:59:41 10° NW visible
19 Apr 4.8 20:16:23 10° WSW 20:17:41 11° W 20:18:58 10° WNW visible
